User: anonymous
Location: Mt. Chestnut Observatory
(40.9038°N, 79.9956°W)
Time: 12:57:06
(UTC-04:00)
Language:

Cosmos 2034 Rocket - Orbit

View from above orbital plane
View from above orbital plane
View from above satellite
View from above satellite

Ground track
Ground track

The orbit data is extracted from the following two-line orbital elements,

1 20150U 89059B   14204.96720660  .00000076  00000-0  63186-4 0  9997
2 20150 082.9416 159.8669 0028787 003.4058 058.6758 13.75580985254760
Epoch (UTC): 23 July 2014 23:12:46
Eccentricity: 0.0028787
inclination: 82.9416°
perigee height: 958 km
apogee height: 1001 km
right ascension of ascending node: 159.8669°
argument of perigee: 3.4058°
revolutions per day: 13.75580985
mean anomaly at epoch: 58.6758°
orbit number at epoch: 25476

The dashed part of the orbit path shows where the satellite is in the earth's shadow,  

DLR